Wetbulb
50.45 50.91 51.91 50.25 49.96 49.73 50.04 50.28 49.30 50.31 54.52 56.56 56.29 55.17 54.21 52.51 50.35 49.56 48.35 47.74 47.58 45.85
46.83 47.47 48.83 48.06 47.38 48.78 47.42 47.49 47.44 47.67 48.60 50.51 53.19 54.71 54.15 53.31 51.55 49.90 48.42 47.99 47.31 46.68
44.77 45.47 46.33 46.28 46.17 46.52 46.88 46.11 45.45 45.86 46.88 46.83 47.80 48.75 50.08 52.01 51.63 50.46 49.09 48.12 47.65 46.70
42.83 43.47 44.08 44.59 45.76 45.90 45.35 44.84 45.52 45.65 45.83 46.15 45.97 46.59 48.57 49.62 49.42 48.25 47.71 47.26 45.96 45.36
42.46 42.48 42.48 42.95 43.97 43.92 44.33 43.71 44.89 44.30 44.39 45.27 46.86 47.97 47.47 47.69 47.65 47.22 45.56 45.82 44.46 44.40
41.59 41.67 41.93 42.33 42.62 42.50 42.37 42.26 41.55 41.53 41.86 44.33 46.40 46.33 46.31 47.08 46.48 45.87 45.47 45.10 43.33 43.54
40.14 40.53 40.99 41.31 41.16 40.97 40.88 40.37 39.78 39.36 40.81 40.53 43.92 43.99 44.62 44.35 43.92 43.68 43.68 43.45 42.97 42.41
38.10 38.17 37.88 37.29 36.94 36.56 36.19 37.92 38.24 37.43 36.26 36.57 38.19 41.41 40.24 39.44 40.43 40.12 40.45 38.14 38.05 38.67
33.23 32.73 33.19 33.56 33.94 34.14 34.39 34.41 34.53 34.54 34.45 34.32 36.38 39.02 40.30 39.31 37.05 35.79 35.89 36.27 35.30 35.39
32.00 32.27 32.52 32.22 32.39 33.10 33.63 33.32 33.24 33.16 32.90 32.07 32.76 37.79 39.02 38.49 34.63 34.37 34.31 34.31 33.65 32.33
30.41 30.06 30.45 30.82 30.80 31.27 31.71 29.83 29.48 29.19 28.67 27.86 29.60 35.97 37.52 37.10 33.42 32.25 32.17 32.27 32.08 31.61
29.31 29.13 29.42 27.87 27.90 27.67 25.83 24.89 24.34 25.71 23.24 23.88 30.78 33.93 35.66 35.39 32.16 30.58 30.19 30.52 30.53 30.71
27.99 28.51 30.06 29.12 27.17 24.40 21.84 25.37 25.03 27.43 29.87 30.50 31.12 32.36 34.61 34.22 30.37 28.99 28.17 28.75 29.43 29.97
24.88 23.99 24.60 23.79 21.17 19.69 19.67 22.68 21.42 25.27 26.66 28.27 28.68 29.80 34.39 32.98 29.57 28.52 27.63 27.98 28.16 29.68
MSLP
1017.46 1017.60 1017.56 1017.61 1017.75 1018.02 1018.20 1018.28 1018.31 1018.54 1018.45 1018.50 1018.70 1018.92 1019.16 1019.49 1019.73 1019.98 1020.18 1020.48 1020.62 1020.58
1017.18 1017.54 1017.57 1017.47 1017.59 1017.67 1017.73 1017.79 1017.87 1017.92 1017.99 1018.03 1018.10 1018.17 1018.44 1018.71 1018.83 1019.22 1019.38 1019.55 1019.72 1019.78
1016.75 1016.90 1017.11 1017.26 1017.15 1017.20 1017.11 1017.20 1017.33 1017.31 1017.38 1017.40 1017.41 1017.55 1017.77 1017.86 1017.97 1018.23 1018.56 1018.84 1018.98 1019.03
1016.97 1016.85 1016.93 1016.95 1016.85 1016.82 1016.81 1016.72 1016.76 1016.73 1016.69 1016.82 1016.90 1016.99 1017.20 1017.25 1017.37 1017.42 1017.53 1017.71 1017.86 1018.03
1016.71 1016.67 1016.68 1016.71 1016.53 1016.63 1016.51 1016.37 1016.19 1016.06 1016.13 1016.19 1016.28 1016.44 1016.61 1016.81 1016.89 1016.91 1016.96 1016.97 1017.23 1017.18
1016.83 1016.80 1016.69 1016.54 1016.39 1016.26 1016.06 1015.88 1015.81 1015.84 1015.86 1015.83 1015.83 1015.94 1015.91 1015.96 1016.08 1016.22 1016.29 1016.37 1016.43 1016.49
1017.27 1017.18 1016.87 1016.49 1016.27 1016.09 1015.87 1015.66 1015.43 1015.31 1015.19 1015.10 1015.21 1015.30 1015.31 1015.39 1015.36 1015.33 1015.51 1015.80 1015.87 1015.97
1017.46 1017.22 1016.87 1016.45 1016.03 1015.74 1015.47 1015.12 1014.94 1014.76 1014.69 1014.60 1014.70 1014.67 1014.67 1014.80 1014.85 1015.00 1014.98 1014.98 1015.13 1015.44
1017.32 1016.94 1016.57 1016.25 1015.86 1015.43 1015.09 1014.79 1014.65 1014.44 1014.40 1014.24 1014.12 1014.08 1014.29 1014.48 1014.60 1014.63 1014.66 1014.96 1014.87 1015.10
1017.40 1017.11 1016.67 1016.33 1015.87 1015.47 1014.98 1014.60 1014.41 1014.27 1014.24 1014.08 1013.81 1013.71 1013.82 1014.08 1014.20 1014.37 1014.51 1014.71 1014.73 1014.97
1017.67 1017.31 1016.83 1016.47 1016.09 1015.37 1014.92 1014.64 1014.49 1014.21 1014.05 1013.96 1013.71 1013.63 1013.50 1013.65 1013.82 1013.97 1014.11 1014.20 1014.33 1014.54
1017.64 1017.13 1016.81 1016.46 1015.96 1015.41 1015.03 1014.77 1014.59 1014.15 1013.97 1013.95 1013.51 1013.44 1013.33 1013.44 1013.62 1013.86 1014.07 1014.05 1014.16 1014.20
1017.61 1017.44 1017.00 1016.52 1016.15 1015.66 1015.14 1014.62 1014.24 1014.03 1013.95 1013.67 1013.33 1013.17 1013.17 1013.21 1013.56 1013.91 1014.06 1014.19 1014.28 1014.35
1017.65 1017.40 1016.97 1016.48 1016.18 1015.91 1015.55 1014.87 1014.48 1014.20 1013.86 1013.96 1013.63 1012.92 1012.85 1013.21 1013.63 1013.91 1014.16 1014.50 1014.69 1014.49
Wind_Speed
6 4 6 6 5 6 7 6 6 9 11 11 9 9 9 8 11 12 14 17 15 12
6 6 7 7 5 5 5 5 7 8 9 10 12 13 11 10 11 11 12 13 14 13
6 6 6 6 7 8 7 7 7 9 10 9 10 10 11 12 11 11 10 9 13 13
6 6 5 6 7 8 7 7 9 9 10 11 10 9 10 12 12 11 12 11 12 14
7 5 6 7 7 6 8 7 9 8 9 9 10 10 11 13 11 13 12 13 12 13
8 7 7 7 7 7 7 8 7 7 8 10 11 11 12 13 12 13 13 12 12 14
8 7 7 7 7 7 7 7 7 7 8 8 10 11 11 11 11 11 11 11 10 11
6 7 8 8 8 7 7 7 7 7 7 7 7 8 9 8 10 9 9 6 7 7
6 6 6 7 7 7 7 7 6 7 7 7 6 11 13 10 7 6 6 7 6 6
7 9 9 8 7 7 7 6 7 6 6 6 6 9 11 13 5 5 5 6 5 4
6 6 7 8 8 7 5 4 5 5 5 3 5 8 9 9 4 4 5 5 5 5
7 9 8 7 7 5 3 3 3 3 3 3 4 6 7 5 3 2 3 3 4 4
8 8 11 9 8 4 3 3 3 3 3 4 4 5 7 5 2 3 2 1 2 5
6 6 7 6 3 4 4 3 2 1 2 3 4 3 4 7 2 1 2 1 1 0
Wind_Direction
226 221 226 215 211 219 220 222 210 213 229 230 224 213 209 210 214 213 217 221 224 220
230 232 239 237 226 233 223 213 207 208 213 220 229 230 222 227 223 220 221 227 226 226
237 232 240 237 239 236 236 217 209 214 218 216 215 215 221 236 238 229 226 229 228 225
279 265 256 250 254 244 241 221 222 221 220 223 221 217 224 237 234 229 231 223 224 228
297 298 274 262 265 257 246 234 232 223 222 221 222 226 226 238 233 233 232 233 229 232
319 314 291 280 275 267 261 251 244 229 228 234 239 238 231 236 234 235 234 231 226 231
331 316 297 289 279 270 259 257 251 237 234 228 234 236 235 232 233 232 231 235 235 231
303 307 308 304 295 284 275 266 259 254 244 235 226 231 221 220 227 234 240 226 225 229
315 312 309 304 296 285 276 271 263 255 248 242 234 233 228 223 224 222 226 238 233 229
326 322 318 313 308 302 294 289 280 278 267 255 243 236 226 225 219 226 230 234 228 225
294 292 303 312 305 300 291 284 284 278 272 258 263 251 239 235 207 219 219 216 211 203
325 321 310 293 288 284 278 285 269 268 272 241 265 251 242 221 187 190 218 210 197 183
313 309 308 305 307 284 271 256 260 260 298 266 258 264 246 200 147 171 171 170 172 190
288 290 280 292 278 297 291 290 299 266 341 302 280 263 212 154 120 132 123 120 119 110